This is the latest recevied weather packets stored in our database for station/object WE3WEE. If no packets are shown the sender has not sent any weather packets the latest 1 day(s).
| Time | Temp. | Humidity | Pressure | Rain* | Wind** | Luminosity | Snow |
|---|---|---|---|---|---|---|---|
| 1778035178 | 15° C | 79% | 1008.5 hPa | 0 mm | - | - | - |
| 1778034876 | 15° C | 78% | 1008.5 hPa | 0 mm | - | - | - |
| 1778034572 | 15.56° C | 77% | 1008.5 hPa | 0 mm | - | - | - |
| 1778034270 | 15.56° C | 75% | 1008.5 hPa | 0 mm | - | - | - |
| 1778033968 | 16.11° C | 75% | 1008.5 hPa | 0 mm | - | - | - |
| 1778033665 | 16.11° C | 74% | 1008.5 hPa | 0 mm | - | - | - |
| 1778033060 | 16.11° C | 73% | 1008.5 hPa | 0 mm | - | - | - |
| 1778032454 | 16.67° C | 73% | 1009.6 hPa | 0 mm | - | - | - |
| 1778031544 | 17.22° C | 69% | 1008.5 hPa | 0 mm | - | - | - |
| 1778031243 | 17.78° C | 69% | 1008.5 hPa | 0 mm | - | - | - |
| 1778030938 | 17.78° C | 68% | 1008.5 hPa | 0 mm | - | - | - |
| 1778030635 | 17.78° C | 66% | 1008.5 hPa | 0 mm | - | - | - |
| 1778030332 | 17.78° C | 66% | 1008.5 hPa | 0 mm | - | - | - |
| 1778030029 | 17.78° C | 67% | 1008.5 hPa | 0 mm | - | - | - |
| 1778029726 | 18.33° C | 66% | 1008.5 hPa | 0 mm | - | - | - |
| 1778029121 | 18.89° C | 63% | 1008.5 hPa | 0 mm | - | - | - |
| 1778028513 | 18.89° C | 63% | 1008.5 hPa | 0 mm | - | - | - |
| 1778027604 | 19.44° C | 60% | 1008.5 hPa | 0 mm | - | - | - |
| 1778027300 | 20° C | 60% | 1008.5 hPa | 0 mm | - | - | - |
| 1778026997 | 20° C | 58% | 1008.5 hPa | 0 mm | - | - | - |
| 1778026390 | 20.56° C | 59% | 1008.5 hPa | 0 mm | - | - | - |
| 1778025481 | 21.11° C | 54% | 1007.5 hPa | 0 mm | - | - | - |
| 1778023362 | 22.22° C | 52% | 1007.5 hPa | 0 mm | - | - | - |
| 1778023058 | 22.22° C | 52% | 1007.5 hPa | 0 mm | - | - | - |
| 1778020028 | 23.33° C | 48% | 1007.5 hPa | 0 mm | - | - | - |
* Rain latest hour (hover to see other rain measurements)
** Current wind speed in m/s (hover to see current wind gust speed)